Location: ????
(30.1475°N, 31.1342°E)
Time: 03:11:19
(UTC+00:00)

ATLAS CENTAUR R/B - Pass Details

Date: 27 September 2022
Orbit: 442 x 677 km, 64.7° (Epoch: 29 November)

Event Time Altitude Azimuth Distance (km) Brightness Sun altitude
Exits shadow 01:46:02 50° 144° (SE) 838 2.2 -26.6°
Maximum altitude 01:46:39 55° 114° (ESE) 801 2.2 -26.5°
Drops below altitude 10° 01:51:22 10° 37° (NE) 2,114 4.9 -25.5°
Enters shadow 02:51:37 -60° 211° (SSW) 11,597 8.0 -12.7°
